This demonstration page uses our WeatherBlox Daily Observations layout. Learn more.

Left ArrowRight Arrow

31.31129, -92.44514

Hourly Observations for August 4, 2016

Temp ( °F °C ) Dew Point ( °F °C ) Humidity (%) Winds ( mph kmh ) Pressure ( in mb ) Visibility ( mi km ) Precip ( " mm )
12:53 am 00:53 Clear 82 27.8 78 25.6 88 88 SSW 6 9 29.95 1014 8 13 0.00 0.00
1:53 am 01:53 Clear 81 27.2 78 25.6 91 91 SW 5 7 29.95 1014 8 13 0.00 0.00
2:53 am 02:53 Clear with Mist and Fog 79 26.1 78 25.6 97 97 Calm 29.94 1014 6 10 0.00 0.00
3:53 am 03:53 Clear with Mist and Fog 78 25.6 77 25 97 97 Calm 29.93 1014 6 10 0.00 0.00
4:53 am 04:53 Clear with Mist and Fog 78 25.6 77 25 97 97 Calm 29.93 1014 5 8 0.00 0.00
5:53 am 05:53 Clear 78 25.6 76 24.4 93 93 Calm 29.95 1014 7 11 0.00 0.00
6:53 am 06:53 Sunny with Mist and Fog 77 25 76 24.4 96 96 Calm 29.97 1015 5 8 0.00 0.00
7:53 am 07:53 Sunny 80 26.7 78 25.6 94 94 Calm 29.99 1016 7 11 0.00 0.00
8:53 am 08:53 Sunny 83 28.3 78 25.6 85 85 WNW 3 6 29.99 1016 8 13 0.00 0.00
9:53 am 09:53 Sunny 87 30.6 78 25.6 75 75 W 3 6 29.98 1015 9 14 0.00 0.00
10:53 am 10:53 Sunny 90 32.2 76 24.4 63 63 Calm 29.98 1015 10 16 0.00 0.00
11:53 am 11:53 Sunny 92 33.3 77 25 62 62 VRB 3 6 29.97 1015 10 16 0.00 0.00
12:53 pm 12:53 Mostly Sunny 95 35 73 22.8 49 49 Calm 29.97 1015 10 16 0.00 0.00
1:53 pm 13:53 Mostly Sunny 95 35 76 24.4 54 54 VRB 3 6 29.95 1014 10 16 0.00 0.00
2:53 pm 14:53 Sunny 95 35 73 22.8 49 49 VRB 3 6 29.93 1013 10 16 0.00 0.00
3:53 pm 15:53 Sunny 97 36.1 75 23.9 49 49 W 3 6 29.90 1013 10 16 0.00 0.00
4:53 pm 16:53 Sunny 96 35.6 72 22.2 46 46 VRB 3 6 29.89 1012 10 16 0.00 0.00
5:53 pm 17:53 Sunny 96 35.6 73 22.8 47 47 Calm 29.90 1012 10 16 0.00 0.00
6:53 pm 18:53 Sunny 95 35 76 24.4 54 54 NE 5 7 29.89 1012 10 16 0.00 0.00
7:53 pm 19:53 Sunny 89 31.7 78 25.6 70 70 SSE 3 6 29.90 1012 9 14 0.00 0.00
8:53 pm 20:53 Clear 86 30 78 25.6 77 77 S 5 7 29.90 1012 10 16 0.00 0.00
9:54 pm 21:54 Mostly Clear 85 29.4 79 26.1 82 82 SSE 5 7 29.92 1013 N/A 0.00 0.00
10:53 pm 22:53 Mostly Cloudy 83 28.3 74 23.3 74 74 SE 15 24 29.94 1014 9 14 0.00 0.00

Powered by AerisWeather